| time (UTC) | temp F | wind direction | speed MPH | gust MPH | rain 1hr in | rain 24hr in | rain mn in | humidity % | barometer mb |
| 20260904172326 | 92 | 259 | 3.0 | 9.0 | 0.00 | 0.00 | 0.00 | 62 | |
| 20260904171821 | 92 | 335 | 0.0 | 4.0 | 0.00 | 0.00 | 0.00 | 65 | |
| 20260904171317 | 93 | 258 | 4.0 | 6.0 | 0.00 | 0.00 | 0.00 | 62 | |
| 20260904170813 | 92 | 20 | 1.0 | 10.0 | 0.00 | 0.00 | 0.00 | 62 | |
| 20260904170308 | 92 | 329 | 5.0 | 8.0 | 0.00 | 0.00 | 0.00 | 62 | |
| 20260904165808 | 92 | 226 | 5.0 | 8.0 | 0.00 | 0.00 | 0.00 | 61 | |
| 20260904165305 | 92 | 115 | 4.0 | 6.0 | 0.00 | 0.00 | 0.00 | 61 | |
| 20260904164802 | 92 | 319 | 2.0 | 4.0 | 0.00 | 0.00 | 0.00 | 62 | |
| 20260904164257 | 91 | 264 | 1.0 | 6.0 | 0.00 | 0.00 | 0.00 | 63 | |
| 20260904163753 | 92 | 85 | 1.0 | 6.0 | 0.00 | 0.00 | 0.00 | 66 | |
| 20260904163248 | 90 | 23 | 2.0 | 4.0 | 0.00 | 0.00 | 0.00 | 65 | |
| 20260904162747 | 89 | 125 | 2.0 | 4.0 | 0.00 | 0.00 | 0.00 | 71 | |
| 20260904162243 | 90 | 338 | 2.0 | 8.0 | 0.00 | 0.00 | 0.00 | 69 | |
| 20260904161738 | 89 | 295 | 1.0 | 3.0 | 0.00 | 0.00 | 0.00 | 69 | |
| 20260904161233 | 89 | 76 | 2.0 | 8.0 | 0.00 | 0.00 | 0.00 | 69 | |
| 20260904160728 | 90 | 179 | 4.0 | 6.0 | 0.00 | 0.00 | 0.00 | 68 | |
| 20260904160224 | 89 | 271 | 4.0 | 8.0 | 0.00 | 0.00 | 0.00 | 69 | |
| 20260904155724 | 90 | 344 | 4.0 | 8.0 | 0.00 | 0.00 | 0.00 | 69 | |
| 20260904155223 | 90 | 136 | 3.0 | 8.0 | 0.00 | 0.00 | 0.00 | 69 | |
| 20260904154721 | 89 | 226 | 2.0 | 7.0 | 0.00 | 0.00 | 0.00 | 69 | |
| 20260904154216 | 89 | 142 | 3.0 | 7.0 | 0.00 | 0.00 | 0.00 | 70 | |
| 20260904153711 | 90 | 29 | 4.0 | 6.0 | 0.00 | 0.00 | 0.00 | 69 | |
| 20260904153207 | 89 | 200 | 3.0 | 6.0 | 0.00 | 0.00 | 0.00 | 69 | |
| 20260904152703 | 89 | 312 | 5.0 | 7.0 | 0.00 | 0.00 | 0.00 | 70 | |
| 20260904152158 | 89 | 173 | 4.0 | 9.0 | 0.00 | 0.00 | 0.00 | 70 | |
| 20260904151653 | 89 | 122 | 2.0 | 7.0 | 0.00 | 0.00 | 0.00 | 71 | |
| 20260904151152 | 89 | 215 | 3.0 | 7.0 | 0.00 | 0.00 | 0.00 | 70 | |
| 20260904150648 | 89 | 199 | 3.0 | 7.0 | 0.00 | 0.00 | 0.00 | 71 | |
| 20260904150149 | 89 | 118 | 4.0 | 6.0 | 0.00 | 0.00 | 0.00 | 71 | |
| 20260904145647 | 89 | 250 | 2.0 | 8.0 | 0.00 | 0.00 | 0.00 | 70 | |
| 20260904145142 | 91 | 155 | 4.0 | 7.0 | 0.00 | 0.00 | 0.00 | 67 | |
| 20260904144638 | 91 | 67 | 4.0 | 7.0 | 0.00 | 0.00 | 0.00 | 63 | |
| 20260904144133 | 89 | 354 | 3.0 | 4.0 | 0.00 | 0.00 | 0.00 | 66 | |
| 20260904143629 | 89 | 271 | 2.0 | 9.0 | 0.00 | 0.00 | 0.00 | 67 | |
| 20260904143125 | 89 | 125 | 3.0 | 6.0 | 0.00 | 0.00 | 0.00 | 67 | |
| 20260904142622 | 89 | 74 | 2.0 | 6.0 | 0.00 | 0.00 | 0.00 | 68 | |
| 20260904142117 | 89 | 108 | 3.0 | 7.0 | 0.00 | 0.00 | 0.00 | 68 | |
| 20260904141612 | 89 | 57 | 4.0 | 6.0 | 0.00 | 0.00 | 0.00 | 68 | |
| 20260904141108 | 89 | 145 | 4.0 | 9.0 | 0.00 | 0.00 | 0.00 | 69 | |
| 20260904140604 | 89 | 34 | 2.0 | 6.0 | 0.00 | 0.00 | 0.00 | 68 | |
| 20260904140057 | 88 | 160 | 2.0 | 6.0 | 0.00 | 0.00 | 0.00 | 69 | |
| 20260904135556 | 88 | 46 | 2.0 | 4.0 | 0.00 | 0.00 | 0.00 | 71 | |
| 20260904135053 | 88 | 110 | 4.0 | 6.0 | 0.00 | 0.00 | 0.00 | 70 | |
| 20260904134549 | 89 | 338 | 2.0 | 6.0 | 0.00 | 0.00 | 0.00 | 69 | |
| 20260904134042 | 88 | 290 | 2.0 | 4.0 | 0.00 | 0.00 | 0.00 | 70 | |
| 20260904133537 | 89 | 263 | 4.0 | 8.0 | 0.00 | 0.00 | 0.00 | 68 | |
| 20260904133033 | 89 | 104 | 2.0 | 6.0 | 0.00 | 0.00 | 0.00 | 69 | |
| 20260904132527 | 88 | 28 | 3.0 | 4.0 | 0.00 | 0.00 | 0.00 | 70 | |
| 20260904132027 | 88 | 327 | 3.0 | 7.0 | 0.00 | 0.00 | 0.00 | 70 | |
| 20260904131527 | 88 | 150 | 3.0 | 6.0 | 0.00 | 0.00 | 0.00 | 69 | |
| 20260904131023 | 88 | 53 | 3.0 | 7.0 | 0.00 | 0.00 | 0.00 | 68 | |
| 20260904130523 | 88 | 34 | 5.0 | 8.0 | 0.00 | 0.00 | 0.00 | 70 | |
| 20260904130023 | 87 | 58 | 4.0 | 6.0 | 0.00 | 0.00 | 0.00 | 70 | |
| 20260904125519 | 87 | 55 | 1.0 | 3.0 | 0.00 | 0.00 | 0.00 | 72 | |
| 20260904125014 | 87 | 355 | 2.0 | 4.0 | 0.00 | 0.00 | 0.00 | 73 | |
| 20260904124510 | 87 | 45 | 2.0 | 2.0 | 0.00 | 0.00 | 0.00 | 72 | |
| 20260904124006 | 87 | 9 | 2.0 | 7.0 | 0.00 | 0.00 | 0.00 | 72 | |
| 20260904123505 | 86 | 248 | 2.0 | 3.0 | 0.00 | 0.00 | 0.00 | 73 | |
| 20260904123001 | 87 | 356 | 1.0 | 6.0 | 0.00 | 0.00 | 0.00 | 72 | |
| 20260904122501 | 87 | 311 | 0.0 | 6.0 | 0.00 | 0.00 | 0.00 | 72 | |
| 20260904121955 | 87 | 343 | 1.0 | 4.0 | 0.00 | 0.00 | 0.00 | 72 | |
| 20260904121451 | 86 | 5 | 4.0 | 8.0 | 0.00 | 0.00 | 0.00 | 73 | |
| 20260904120948 | 86 | 17 | 1.0 | 6.0 | 0.00 | 0.00 | 0.00 | 73 | |
| 20260904120443 | 86 | 6 | 1.0 | 7.0 | 0.00 | 0.00 | 0.00 | 74 | |
| 20260904115938 | 86 | 3 | 3.0 | 4.0 | 0.00 | 0.00 | 0.00 | 73 | |
| 20260904115434 | 86 | 298 | 2.0 | 6.0 | 0.00 | 0.00 | 0.00 | 73 | |
| 20260904114934 | 86 | 355 | 1.0 | 7.0 | 0.00 | 0.00 | 0.00 | 73 | |
| 20260904114433 | 86 | 352 | 2.0 | 8.0 | 0.00 | 0.00 | 0.00 | 73 | |
| 20260904113930 | 85 | 339 | 1.0 | 2.0 | 0.00 | 0.00 | 0.00 | 74 | |
| 20260904113428 | 85 | 345 | 2.0 | 3.0 | 0.00 | 0.00 | 0.00 | 74 | |
| 20260904112928 | 85 | 357 | 0.0 | 2.0 | 0.00 | 0.00 | 0.00 | 76 | |
| 20260904112424 | 84 | 357 | 1.0 | 3.0 | 0.00 | 0.00 | 0.00 | 76 | |
| 20260904111919 | 84 | 311 | 2.0 | 3.0 | 0.00 | 0.00 | 0.00 | 77 | |
| 20260904111414 | 83 | 292 | 2.0 | 2.0 | 0.00 | 0.00 | 0.00 | 78 | |
| 20260904110911 | 83 | 353 | 0.0 | 2.0 | 0.00 | 0.00 | 0.00 | 79 | |
| 20260904110409 | 82 | 359 | 0.0 | 6.0 | 0.00 | 0.00 | 0.00 | 79 | |
| 20260904105904 | 82 | 358 | 1.0 | 2.0 | 0.00 | 0.00 | 0.00 | 80 | |
| 20260904105359 | 82 | 342 | 1.0 | 2.0 | 0.00 | 0.00 | 0.00 | 80 | |
| 20260904104854 | 82 | 29 | 1.0 | 2.0 | 0.00 | 0.00 | 0.00 | 80 | |
| 20260904104349 | 82 | 346 | 1.0 | 2.0 | 0.00 | 0.00 | 0.00 | 80 | |
| 20260904103847 | 82 | 70 | 0.0 | 2.0 | 0.00 | 0.00 | 0.00 | 81 | |
| 20260904103346 | 82 | 350 | 0.0 | 3.0 | 0.00 | 0.00 | 0.00 | 81 | |
| 20260904102842 | 82 | 348 | 1.0 | 1.0 | 0.00 | 0.00 | 0.00 | 80 | |
| 20260904102337 | 82 | 347 | 1.0 | 3.0 | 0.00 | 0.00 | 0.00 | 80 | |
| 20260904101833 | 82 | 342 | 0.0 | 2.0 | 0.00 | 0.00 | 0.00 | 80 | |
| 20260904101329 | 82 | 4 | 1.0 | 2.0 | 0.00 | 0.00 | 0.00 | 80 | |
| 20260904100825 | 82 | 2 | 0.0 | 2.0 | 0.00 | 0.00 | 0.00 | 80 | |
| 20260904100321 | 82 | 14 | 2.0 | 3.0 | 0.00 | 0.00 | 0.00 | 80 | |
| 20260904095815 | 82 | 37 | 0.0 | 2.0 | 0.00 | 0.00 | 0.00 | 81 | |
| 20260904095310 | 82 | 334 | 2.0 | 3.0 | 0.00 | 0.00 | 0.00 | 81 | |
| 20260904094805 | 82 | 175 | 2.0 | 3.0 | 0.00 | 0.00 | 0.00 | 80 | |
| 20260904094300 | 82 | 185 | 2.0 | 3.0 | 0.00 | 0.00 | 0.00 | 80 | |
| 20260904093757 | 82 | 15 | 3.0 | 4.0 | 0.00 | 0.00 | 0.00 | 80 | |
| 20260904093256 | 82 | 358 | 3.0 | 3.0 | 0.00 | 0.00 | 0.00 | 80 | |
| 20260904092752 | 82 | 329 | 1.0 | 2.0 | 0.00 | 0.00 | 0.00 | 80 | |
| 20260904092249 | 82 | 266 | 0.0 | 1.0 | 0.00 | 0.00 | 0.00 | 80 | |
| 20260904091744 | 82 | 15 | 1.0 | 2.0 | 0.00 | 0.00 | 0.00 | 80 | |
| 20260904091238 | 82 | 343 | 1.0 | 4.0 | 0.00 | 0.00 | 0.00 | 80 | |
| 20260904090734 | 82 | 356 | 1.0 | 1.0 | 0.00 | 0.00 | 0.00 | 80 | |
| 20260904090231 | 82 | 52 | 2.0 | 3.0 | 0.00 | 0.00 | 0.00 | 80 | |
| 20260904085730 | 82 | 313 | 1.0 | 1.0 | 0.00 | 0.00 | 0.00 | 80 | |
| 20260904085225 | 82 | 346 | 0.0 | 1.0 | 0.00 | 0.00 | 0.00 | 80 | |
| 20260904084720 | 82 | 288 | 1.0 | 2.0 | 0.00 | 0.00 | 0.00 | 79 | |
| 20260904084217 | 82 | 34 | 0.0 | 2.0 | 0.00 | 0.00 | 0.00 | 79 | |
| 20260904083713 | 82 | 288 | 1.0 | 3.0 | 0.00 | 0.00 | 0.00 | 80 | |
| 20260904083209 | 82 | 23 | 3.0 | 3.0 | 0.00 | 0.00 | 0.00 | 80 | |
| 20260904082708 | 82 | 16 | 1.0 | 3.0 | 0.00 | 0.00 | 0.00 | 81 | |
| 20260904082204 | 82 | 48 | 1.0 | 4.0 | 0.00 | 0.00 | 0.00 | 81 | |
| 20260904081659 | 82 | 329 | 0.0 | 3.0 | 0.00 | 0.00 | 0.00 | 81 | |
| 20260904081154 | 82 | 331 | 0.0 | 4.0 | 0.00 | 0.00 | 0.00 | 81 | |
| 20260904080650 | 82 | 347 | 0.0 | 1.0 | 0.00 | 0.00 | 0.00 | 81 | |
| 20260904080146 | 82 | 67 | 1.0 | 4.0 | 0.00 | 0.00 | 0.00 | 81 | |
| 20260904075643 | 82 | 3 | 0.0 | 3.0 | 0.00 | 0.00 | 0.00 | 81 | |
| 20260904075137 | 82 | 15 | 1.0 | 2.0 | 0.00 | 0.00 | 0.00 | 81 | |
| 20260904074636 | 82 | 348 | 0.0 | 1.0 | 0.00 | 0.00 | 0.00 | 81 | |
| 20260904074131 | 82 | 333 | 2.0 | 2.0 | 0.00 | 0.00 | 0.00 | 80 | |
| 20260904073626 | 82 | 7 | 1.0 | 2.0 | 0.00 | 0.00 | 0.00 | 80 | |
| 20260904073122 | 82 | 340 | 1.0 | 3.0 | 0.00 | 0.00 | 0.00 | 80 | |
| 20260904072618 | 82 | 329 | 1.0 | 4.0 | 0.00 | 0.00 | 0.00 | 80 | |
| 20260904072113 | 82 | 30 | 1.0 | 3.0 | 0.00 | 0.00 | 0.00 | 81 | |
| 20260904071608 | 82 | 54 | 2.0 | 4.0 | 0.00 | 0.00 | 0.00 | 81 | |
| 20260904071103 | 82 | 14 | 1.0 | 3.0 | 0.00 | 0.00 | 0.00 | 82 | |
| 20260904070602 | 82 | 341 | 0.0 | 3.0 | 0.00 | 0.00 | 0.00 | 82 | |
| 20260904070057 | 82 | 344 | 0.0 | 1.0 | 0.00 | 0.00 | 0.00 | 81 | |
| 20260904065551 | 82 | 325 | 1.0 | 2.0 | 0.00 | 0.00 | 0.00 | 81 | |
| 20260904065048 | 82 | 7 | 1.0 | 2.0 | 0.00 | 0.00 | 0.00 | 81 | |
| 20260904064544 | 82 | 333 | 0.0 | 6.0 | 0.00 | 0.00 | 0.00 | 81 | |
| 20260904064038 | 82 | 75 | 2.0 | 3.0 | 0.00 | 0.00 | 0.00 | 81 | |
| 20260904063535 | 82 | 342 | 1.0 | 2.0 | 0.00 | 0.00 | 0.00 | 81 | |
| 20260904063030 | 82 | 32 | 4.0 | 7.0 | 0.00 | 0.00 | 0.00 | 82 | |
| 20260904062526 | 82 | 343 | 2.0 | 2.0 | 0.00 | 0.00 | 0.00 | 82 | |
| 20260904062021 | 82 | 48 | 3.0 | 4.0 | 0.00 | 0.00 | 0.00 | 82 | |
| 20260904061517 | 82 | 350 | 1.0 | 2.0 | 0.00 | 0.00 | 0.00 | 82 | |
| 20260904061014 | 82 | 11 | 2.0 | 3.0 | 0.00 | 0.00 | 0.00 | 82 | |
| 20260904060509 | 82 | 345 | 0.0 | 1.0 | 0.00 | 0.00 | 0.00 | 81 | |
| 20260904060005 | 82 | 351 | 1.0 | 3.0 | 0.00 | 0.00 | 0.00 | 81 | |
| 20260904055500 | 82 | 6 | 1.0 | 3.0 | 0.00 | 0.00 | 0.00 | 81 | |
| 20260904054955 | 82 | 329 | 1.0 | 3.0 | 0.00 | 0.00 | 0.00 | 81 | |
| 20260904054451 | 82 | 25 | 1.0 | 3.0 | 0.00 | 0.00 | 0.00 | 81 | |
| 20260904053947 | 82 | 37 | 1.0 | 2.0 | 0.00 | 0.00 | 0.00 | 81 | |
| 20260904053446 | 82 | 310 | 1.0 | 3.0 | 0.00 | 0.00 | 0.00 | 81 | |
| 20260904052942 | 82 | 339 | 1.0 | 2.0 | 0.00 | 0.00 | 0.00 | 81 | |
| 20260904052438 | 82 | 94 | 0.0 | 3.0 | 0.00 | 0.00 | 0.00 | 81 | |
| 20260904051934 | 83 | 49 | 0.0 | 3.0 | 0.00 | 0.00 | 0.00 | 81 | |
| 20260904051431 | 82 | 352 | 2.0 | 4.0 | 0.00 | 0.00 | 0.00 | 81 | |
| 20260904050929 | 82 | 312 | 1.0 | 4.0 | 0.00 | 0.00 | 0.00 | 81 | |
| 20260904050426 | 82 | 23 | 1.0 | 4.0 | 0.00 | 0.00 | 0.00 | 81 | |
| 20260904045925 | 83 | 344 | 1.0 | 7.0 | 0.00 | 0.00 | 0.00 | 81 | |
| 20260904045420 | 83 | 358 | 1.0 | 2.0 | 0.00 | 0.00 | 0.00 | 81 | |
| 20260904044915 | 83 | 309 | 0.0 | 2.0 | 0.00 | 0.00 | 0.00 | 81 | |
| 20260904044412 | 83 | 329 | 4.0 | 7.0 | 0.00 | 0.00 | 0.00 | 81 | |
| 20260904043908 | 83 | 345 | 0.0 | 1.0 | 0.00 | 0.00 | 0.00 | 81 | |
| 20260904043404 | 83 | 342 | 0.0 | 3.0 | 0.00 | 0.00 | 0.00 | 81 | |
| 20260904042859 | 83 | 344 | 0.0 | 2.0 | 0.00 | 0.00 | 0.00 | 81 | |
| 20260904042355 | 83 | 22 | 0.0 | 2.0 | 0.00 | 0.00 | 0.00 | 81 | |
| 20260904041855 | 83 | 3 | 1.0 | 3.0 | 0.00 | 0.00 | 0.00 | 81 | |
| 20260904041351 | 83 | 4 | 1.0 | 4.0 | 0.00 | 0.00 | 0.00 | 81 | |
| 20260904040847 | 83 | 348 | 0.0 | 4.0 | 0.00 | 0.00 | 0.00 | 81 | |
| 20260904040342 | 83 | 351 | 0.0 | 1.0 | 0.00 | 0.00 | 0.00 | 81 | |
| 20260904035839 | 83 | 267 | 0.0 | 6.0 | 0.00 | 0.00 | 0.00 | 81 | |
| 20260904035335 | 83 | 34 | 1.0 | 3.0 | 0.00 | 0.00 | 0.00 | 81 | |
| 20260904034833 | 83 | 10 | 0.0 | 3.0 | 0.00 | 0.00 | 0.00 | 81 | |
| 20260904034329 | 83 | 319 | 1.0 | 2.0 | 0.00 | 0.00 | 0.00 | 81 | |
| 20260904033825 | 83 | 10 | 4.0 | 6.0 | 0.00 | 0.00 | 0.00 | 81 | |
| 20260904033321 | 83 | 85 | 4.0 | 4.0 | 0.00 | 0.00 | 0.00 | 81 | |
| 20260904032817 | 83 | 1 | 1.0 | 2.0 | 0.00 | 0.00 | 0.00 | 81 | |
| 20260904032316 | 83 | 319 | 1.0 | 2.0 | 0.00 | 0.00 | 0.00 | 82 | |
| 20260904031810 | 83 | 12 | 0.0 | 2.0 | 0.00 | 0.00 | 0.00 | 82 | |
| 20260904031306 | 83 | 31 | 0.0 | 2.0 | 0.00 | 0.00 | 0.00 | 82 | |
| 20260904030801 | 83 | 316 | 0.0 | 2.0 | 0.00 | 0.00 | 0.00 | 82 | |
| 20260904030257 | 83 | 13 | 1.0 | 3.0 | 0.00 | 0.00 | 0.00 | 82 | |
| 20260904025753 | 83 | 324 | 1.0 | 2.0 | 0.00 | 0.00 | 0.00 | 82 | |
| 20260904025248 | 83 | 40 | 1.0 | 2.0 | 0.00 | 0.00 | 0.00 | 82 | |
| 20260904024743 | 83 | 8 | 1.0 | 3.0 | 0.00 | 0.00 | 0.00 | 82 | |
| 20260904024239 | 83 | 347 | 1.0 | 3.0 | 0.00 | 0.00 | 0.00 | 81 | |
| 20260904023735 | 83 | 80 | 2.0 | 2.0 | 0.00 | 0.00 | 0.00 | 81 | |
| 20260904023231 | 83 | 288 | 2.0 | 3.0 | 0.00 | 0.00 | 0.00 | 81 | |
| 20260904022730 | 84 | 352 | 0.0 | 4.0 | 0.00 | 0.00 | 0.00 | 81 | |
| 20260904022228 | 84 | 334 | 2.0 | 3.0 | 0.00 | 0.00 | 0.00 | 81 | |
| 20260904021723 | 83 | 62 | 1.0 | 2.0 | 0.00 | 0.00 | 0.00 | 81 | |
| 20260904021223 | 83 | 343 | 0.0 | 3.0 | 0.00 | 0.00 | 0.00 | 81 | |
| 20260904020719 | 84 | 301 | 2.0 | 2.0 | 0.00 | 0.00 | 0.00 | 81 | |
| 20260904020219 | 84 | 323 | 1.0 | 4.0 | 0.00 | 0.00 | 0.00 | 81 | |
| 20260904015717 | 84 | 336 | 0.0 | 2.0 | 0.00 | 0.00 | 0.00 | 81 | |
| 20260904015213 | 84 | 111 | 1.0 | 2.0 | 0.00 | 0.00 | 0.00 | 80 | |
| 20260904014711 | 84 | 325 | 2.0 | 6.0 | 0.00 | 0.00 | 0.00 | 80 | |
| 20260904014207 | 84 | 16 | 2.0 | 6.0 | 0.00 | 0.00 | 0.00 | 80 | |
| 20260904013703 | 84 | 80 | 2.0 | 3.0 | 0.00 | 0.00 | 0.00 | 80 | |
| 20260904013159 | 84 | 314 | 1.0 | 2.0 | 0.00 | 0.00 | 0.00 | 80 | |
| 20260904012654 | 84 | 341 | 1.0 | 4.0 | 0.00 | 0.00 | 0.00 | 79 | |
| 20260904012153 | 84 | 359 | 0.0 | 3.0 | 0.00 | 0.00 | 0.00 | 79 | |
| 20260904011653 | 84 | 109 | 1.0 | 2.0 | 0.00 | 0.00 | 0.00 | 79 | |
| 20260904011148 | 84 | 315 | 2.0 | 2.0 | 0.00 | 0.00 | 0.00 | 79 | |
| 20260904010644 | 84 | 28 | 2.0 | 3.0 | 0.00 | 0.00 | 0.00 | 79 | |
| 20260904010140 | 84 | 189 | 2.0 | 4.0 | 0.00 | 0.00 | 0.00 | 79 | |
| 20260904005635 | 84 | 48 | 2.0 | 3.0 | 0.00 | 0.00 | 0.00 | 79 | |
| 20260904005130 | 84 | 27 | 2.0 | 3.0 | 0.00 | 0.00 | 0.00 | 79 | |
| 20260904004626 | 84 | 1 | 1.0 | 6.0 | 0.00 | 0.00 | 0.00 | 80 | |
| 20260904004126 | 84 | 349 | 1.0 | 3.0 | 0.00 | 0.00 | 0.00 | 80 | |
| 20260904003622 | 84 | 338 | 1.0 | 6.0 | 0.00 | 0.00 | 0.00 | 79 | |
| 20260904003118 | 84 | 350 | 1.0 | 6.0 | 0.00 | 0.00 | 0.00 | 79 | |
| 20260904002614 | 84 | 249 | 1.0 | 3.0 | 0.00 | 0.00 | 0.00 | 79 | |
| 20260904002114 | 84 | 20 | 2.0 | 3.0 | 0.00 | 0.00 | 0.00 | 79 | |
| 20260904001609 | 84 | 33 | 2.0 | 4.0 | 0.00 | 0.00 | 0.00 | 79 | |
| 20260904001108 | 84 | 312 | 0.0 | 2.0 | 0.00 | 0.00 | 0.00 | 79 | |
| 20260904000603 | 84 | 296 | 1.0 | 6.0 | 0.00 | 0.00 | 0.00 | 79 | |
| 20260904000059 | 84 | 97 | 4.0 | 8.0 | 0.00 | 0.00 | 0.00 | 79 | |
| 20260903235558 | 85 | 0 | 2.0 | 4.0 | 0.00 | 0.00 | 0.00 | 79 | |
| 20260903235054 | 85 | 39 | 1.0 | 4.0 | 0.00 | 0.00 | 0.00 | 78 | |
| 20260903234549 | 85 | 295 | 1.0 | 3.0 | 0.00 | 0.00 | 0.00 | 78 | |
| 20260903234045 | 85 | 356 | 1.0 | 4.0 | 0.00 | 0.00 | 0.00 | 78 | |
| 20260903233541 | 85 | 350 | 1.0 | 4.0 | 0.00 | 0.00 | 0.00 | 77 | |
| 20260903233036 | 85 | 358 | 1.0 | 4.0 | 0.00 | 0.00 | 0.00 | 77 | |
| 20260903232531 | 85 | 349 | 2.0 | 4.0 | 0.00 | 0.00 | 0.00 | 77 | |
| 20260903232027 | 85 | 65 | 1.0 | 7.0 | 0.00 | 0.00 | 0.00 | 77 | |
| 20260903231521 | 85 | 20 | 4.0 | 6.0 | 0.00 | 0.00 | 0.00 | 77 | |
| 20260903231015 | 85 | 4 | 1.0 | 2.0 | 0.00 | 0.00 | 0.00 | 76 | |
| 20260903230512 | 85 | 46 | 2.0 | 4.0 | 0.00 | 0.00 | 0.00 | 76 | |
| 20260903230010 | 86 | 348 | 1.0 | 4.0 | 0.00 | 0.00 | 0.00 | 75 | |
| 20260903225503 | 86 | 38 | 1.0 | 6.0 | 0.00 | 0.00 | 0.00 | 75 | |
| 20260903224959 | 86 | 340 | 1.0 | 4.0 | 0.00 | 0.00 | 0.00 | 75 | |
| 20260903224455 | 86 | 359 | 2.0 | 4.0 | 0.00 | 0.00 | 0.00 | 74 | |
| 20260903223950 | 86 | 339 | 1.0 | 2.0 | 0.00 | 0.00 | 0.00 | 73 | |
| 20260903223450 | 86 | 19 | 1.0 | 4.0 | 0.00 | 0.00 | 0.00 | 73 | |
| 20260903222949 | 87 | 341 | 2.0 | 6.0 | 0.00 | 0.00 | 0.00 | 72 | |
| 20260903222444 | 87 | 327 | 3.0 | 4.0 | 0.00 | 0.00 | 0.00 | 71 | |
| 20260903221943 | 88 | 357 | 2.0 | 6.0 | 0.00 | 0.00 | 0.00 | 71 | |
| 20260903221438 | 88 | 341 | 0.0 | 6.0 | 0.00 | 0.00 | 0.00 | 70 | |
| 20260903220935 | 88 | 9 | 2.0 | 2.0 | 0.00 | 0.00 | 0.00 | 70 | |
| 20260903220429 | 88 | 184 | 2.0 | 4.0 | 0.00 | 0.00 | 0.00 | 69 | |
| 20260903215927 | 88 | 351 | 1.0 | 4.0 | 0.00 | 0.00 | 0.00 | 69 | |
| 20260903215424 | 89 | 17 | 1.0 | 7.0 | 0.00 | 0.00 | 0.00 | 68 | |
| 20260903214922 | 89 | 228 | 2.0 | 7.0 | 0.00 | 0.00 | 0.00 | 66 | |
| 20260903214418 | 89 | 127 | 1.0 | 7.0 | 0.00 | 0.00 | 0.00 | 67 | |
| 20260903213917 | 88 | 359 | 2.0 | 8.0 | 0.00 | 0.00 | 0.00 | 67 | |
| 20260903213413 | 89 | 342 | 1.0 | 4.0 | 0.00 | 0.00 | 0.00 | 67 | |
| 20260903212909 | 89 | 17 | 4.0 | 6.0 | 0.00 | 0.00 | 0.00 | 66 | |
| 20260903212405 | 90 | 45 | 2.0 | 4.0 | 0.00 | 0.00 | 0.00 | 64 | |
| 20260903211904 | 90 | 82 | 1.0 | 4.0 | 0.00 | 0.00 | 0.00 | 64 | |
| 20260903211400 | 90 | 352 | 3.0 | 9.0 | 0.00 | 0.00 | 0.00 | 64 | |
| 20260903210856 | 90 | 313 | 2.0 | 4.0 | 0.00 | 0.00 | 0.00 | 65 | |
| 20260903210350 | 90 | 320 | 1.0 | 6.0 | 0.00 | 0.00 | 0.00 | 65 | |
| 20260903205850 | 90 | 89 | 2.0 | 6.0 | 0.00 | 0.00 | 0.00 | 64 | |
| 20260903205350 | 90 | 293 | 5.0 | 8.0 | 0.00 | 0.00 | 0.00 | 63 | |
| 20260903204845 | 90 | 39 | 2.0 | 6.0 | 0.00 | 0.00 | 0.00 | 64 | |
| 20260903204341 | 90 | 31 | 2.0 | 4.0 | 0.00 | 0.00 | 0.00 | 65 | |
| 20260903203836 | 90 | 322 | 2.0 | 7.0 | 0.00 | 0.00 | 0.00 | 67 | |
| 20260903203332 | 90 | 48 | 4.0 | 6.0 | 0.00 | 0.00 | 0.00 | 66 | |
| 20260903202831 | 90 | 113 | 2.0 | 3.0 | 0.00 | 0.00 | 0.00 | 67 | |
| 20260903202328 | 90 | 38 | 2.0 | 4.0 | 0.00 | 0.00 | 0.00 | 69 | |
| 20260903201826 | 91 | 351 | 5.0 | 7.0 | 0.00 | 0.00 | 0.00 | 67 | |
| 20260903201322 | 91 | 39 | 2.0 | 6.0 | 0.00 | 0.00 | 0.00 | 67 | |
| 20260903200820 | 91 | 52 | 3.0 | 6.0 | 0.00 | 0.00 | 0.00 | 66 | |
| 20260903200316 | 92 | 272 | 3.0 | 6.0 | 0.00 | 0.00 | 0.00 | 64 | |
| 20260903195811 | 92 | 112 | 3.0 | 6.0 | 0.00 | 0.00 | 0.00 | 64 | |
| 20260903195307 | 91 | 329 | 2.0 | 4.0 | 0.00 | 0.00 | 0.00 | 66 | |
| 20260903194802 | 90 | 205 | 1.0 | 7.0 | 0.00 | 0.00 | 0.00 | 66 | |
| 20260903194258 | 91 | 9 | 2.0 | 7.0 | 0.00 | 0.00 | 0.00 | 66 | |
| 20260903193754 | 90 | 304 | 2.0 | 7.0 | 0.00 | 0.00 | 0.00 | 68 | |
| 20260903193249 | 91 | 28 | 4.0 | 6.0 | 0.00 | 0.00 | 0.00 | 65 | |
| 20260903192745 | 91 | 30 | 3.0 | 4.0 | 0.00 | 0.00 | 0.00 | 64 | |
| 20260903192240 | 91 | 48 | 3.0 | 4.0 | 0.00 | 0.00 | 0.00 | 65 | |
| 20260903191737 | 91 | 352 | 1.0 | 7.0 | 0.00 | 0.00 | 0.00 | 66 | |
| 20260903191232 | 91 | 140 | 2.0 | 6.0 | 0.00 | 0.00 | 0.00 | 66 | |
| 20260903190726 | 91 | 25 | 1.0 | 9.0 | 0.00 | 0.00 | 0.00 | 66 | |
| 20260903190220 | 91 | 247 | 1.0 | 4.0 | 0.00 | 0.00 | 0.00 | 65 | |
| 20260903185715 | 91 | 185 | 2.0 | 7.0 | 0.00 | 0.00 | 0.00 | 65 | |
| 20260903185210 | 91 | 230 | 6.0 | 8.0 | 0.00 | 0.00 | 0.00 | 65 | |
| 20260903184707 | 92 | 22 | 3.0 | 7.0 | 0.00 | 0.00 | 0.00 | 65 | |
| 20260903184203 | 90 | 1 | 1.0 | 7.0 | 0.00 | 0.00 | 0.00 | 68 | |
| 20260903183702 | 91 | 49 | 1.0 | 4.0 | 0.00 | 0.00 | 0.00 | 66 | |
| 20260903183156 | 91 | 125 | 5.0 | 8.0 | 0.00 | 0.00 | 0.00 | 66 | |
| 20260903182656 | 91 | 220 | 1.0 | 6.0 | 0.00 | 0.00 | 0.00 | 66 | |
| 20260903182152 | 92 | 325 | 4.0 | 8.0 | 0.00 | 0.00 | 0.00 | 64 | |
| 20260903181650 | 92 | 25 | 1.0 | 7.0 | 0.00 | 0.00 | 0.00 | 64 | |
| 20260903181144 | 92 | 240 | 2.0 | 4.0 | 0.00 | 0.00 | 0.00 | 65 | |
| 20260903180640 | 91 | 104 | 2.0 | 9.0 | 0.00 | 0.00 | 0.00 | 66 | |
| 20260903180139 | 91 | 200 | 3.0 | 6.0 | 0.00 | 0.00 | 0.00 | 65 | |
| 20260903175633 | 91 | 49 | 3.0 | 8.0 | 0.00 | 0.00 | 0.00 | 65 | |
| 20260903175132 | 90 | 109 | 5.0 | 7.0 | 0.00 | 0.00 | 0.00 | 66 | |
| 20260903174628 | 90 | 252 | 2.0 | 6.0 | 0.00 | 0.00 | 0.00 | 68 | |
| 20260903174128 | 90 | 234 | 2.0 | 6.0 | 0.00 | 0.00 | 0.00 | 68 | |
| 20260903173623 | 89 | 48 | 2.0 | 3.0 | 0.00 | 0.00 | 0.00 | 71 | |
| 20260903173120 | 89 | 5 | 2.0 | 3.0 | 0.00 | 0.00 | 0.00 | 71 | |
| 20260903172619 | 90 | 185 | 5.0 | 10.0 | 0.00 | 0.00 | 0.00 | 69 |